OneWeb SL0185

operational
NORAD ID: 48220 Int'l Des: 2021-031 Owner: ONEWEBN Country: UK Constellation: oneweb
LEOCIRCULARPOLARONEWEB_TYPE

Über OneWeb SL0185

Beschreibung wird geladen...

Live-Position

3D-Globus wird geladen...

Nächste Überflüge

Höhenverlauf

Altitude vs Time

uPlot chart will show altitude changes over time

Zweizeiliger Elementsatz

1 48220U 21031L 25257.51921052 -.00000041 00000-0 -14601-3 0 9991
2 48220 87.9084 344.5738 0002246 104.8115 255.3264 13.14504952212031
Epoch: 14. Sept. 2025 • Age: 22 hours

Aktueller Status

Höhe 1213.9 km
Geschwindigkeit 7.25 km/s
Subsatellitenpunkt 55.79°N, 167.17°W
Startdatum 25. Apr. 2021
Alter 4.3 years
Typ internet

Technische Details

Klassifizierung Payload
Masse 148.00 kg
Trockenmasse 140.00 kg
Gesamtmasse 148.00 kg
Länge 1.30 m
Durchmesser 1.00 m
Spannweite 5.00 m
Form Trapezoid+2 pan
Hersteller ONEWUS
Bus-Typ ARROW
Phasenstatus In Orbit
Besitzer/Staat ONEWEBN/UK

Große Konstellationen

Loading constellations...